Location: Aalen
(48.8330°N, 10.1000°E)
Time: 15:18:40
(UTC+02:00)

CAS-6 - Pass Details

Date: 03 April 2023
Orbit: 610 x 632 km, 97.9° (Epoch: 29 May)

Event Time Altitude Azimuth Distance (km) Brightness Sun altitude
Exits shadow 22:36:03 25° 42° (NE) 1,268 ? -24.7°
Drops below altitude 10° 22:38:47 10° 7° (N) 2,012 ? -25.0°
Sets 22:41:14 0° 356° (N) 2,928 ? -25.3°
